Regional Weather Roundup
Issued by NWS

Home | Current Version | Previous Version | Text Only | Print | Product List | Glossary Off
Versions: 1 2 3 4 5 6 7 8 9 10 11 12 13 14 15 16 17 18 19 20 21 22 23 24 25 26 27 28 29 30 31 32 33 34 35 36 37 38 39 40 41 42 43 44 45 46 47 48 49 50

000
ASUS43 KFSD 262010
RWRSD

WEATHER ROUNDUP FOR SOUTH DAKOTA
NATIONAL WEATHER SERVICE SIOUX FALLS SD
200 PM CST FRI DEC 26 2014

NOTE: "FAIR" INDICATES FEW OR NO CLOUDS BELOW 12,000 FEET WITH NO
SIGNIFICANT WEATHER AND/OR OBSTRUCTIONS TO VISIBILITY.


SDZ001>005-009-010-012>017-262100-
NORTHWEST AND NORTH CENTRAL SOUTH DAKOTA

CITY           SKY/WX    TMP DP  RH WIND       PRES   REMARKS
BUFFALO          N/A     22  13  68 NW7       30.01F WCI  13
FAITH            N/A     20  10  65 NW8       30.10F WCI  10
MOBRIDGE       CLOUDY    20  12  71 N10       30.13S WCI   9
$$

SDZ012>016-024>037-041>051-057-063-072>074-262100-
SOUTHWEST AND SOUTH CENTRAL SOUTH DAKOTA

CITY           SKY/WX    TMP DP  RH WIND       PRES   REMARKS
RAPID CTY ARPT FLURRIES  19  13  77 NE8       30.07F WCI   9
PIERRE         LGT SNOW  22  18  85 N14       30.12F FOG     WCI   9
CUSTER         CLOUDY    17  11  77 SW7       29.90F WCI   8
ELLSWORTH AFB  DRIZZLE   18  14  86 NE6       30.06  WCI   9
PHILIP         FLURRIES  21  15  78 NW10      30.12F WCI  10
PINE RIDGE     CLOUDY    20  12  71 N13       30.05F WCI   7
SPEARFISH      CLOUDY    18  14  86 N7        30.04S WCI   8
WINNER         CLOUDY    23  18  81 N20       30.08S WCI   8
$$

SDZ004>011-016>023-039-040-262100-
NORTHEAST SOUTH DAKOTA

CITY           SKY/WX    TMP DP  RH WIND       PRES   REMARKS
ABERDEEN       CLOUDY    23  17  78 N14       30.15S WCI  11
WATERTOWN      CLOUDY    22  17  81 N16       30.06F WCI   8
SISSETON         N/A     24  19  81 N17       30.12  WCI  11
$$

SDZ017-020-022-023-036>040-048>070-262100-
SOUTHEAST SOUTH DAKOTA

CITY           SKY/WX    TMP DP  RH WIND       PRES   REMARKS
SIOUX FALLS    CLOUDY    28  22  78 N20       30.01F WCI  15
HURON          CLOUDY    24  19  81 N13       30.12S WCI  12
CHAMBERLAIN    CLOUDY    23  18  83 N15       30.10F WCI  10
MITCHELL       CLOUDY    25  20  81 N18       30.09F WCI  11
YANKTON        CLOUDY    28  21  74 N13       30.08R WCI  18
$$

ABBREVIATIONS USED IN REMARKS
   TC - TEMPERATURE IN CELSIUS
  WCI - WIND CHILL INDEX
   HX - HEAT INDEX
  VSB - VISIBILITY



USA.gov is the U.S. government's official web portal to all federal, state and local government web resources and services.